Weather History for Marianna, FL

Change the Weather History Date:

Sunday, March 23, 2014

  Actual Average Record
Temperature  
Mean Temperature 65 °F 62 °F  
Max Temperature 75 °F 74 °F 86 °F (2011)
Min Temperature 54 °F 49 °F 33 °F (2002)
Degree Days  
Heating Degree Days 0    
Month to date heating degree days 165  
Since 1 July heating degree days 1625  
Cooling Degree Days 0    
Month to date cooling degree days 3  
Year to date cooling degree days 12  
Growing Degree Days 14 (Base 50)    
Moisture  
Dew Point 59 °F    
Average Humidity 79    
Maximum Humidity 100    
Minimum Humidity 57    
Precipitation  
Precipitation 0.07 in 0.19 in 0.26 in (2013)
Month to date precipitation 5.83 3.85  
Year to date precipitation 13.16 13.83  
Sea Level Pressure  
Sea Level Pressure 30.02 in    
Wind  
Wind Speed 8 mph (WNW)    
Max Wind Speed 20 mph    
Max Gust Speed 25 mph    
Visibility 6 miles    
Events Fog , Rain    
T = Trace of Precipitation, MM = Missing Value Source: NWS Daily Summary

Daily Weather History Graph

Daily Weather History Graph

Search for Another Location

Airport:

Trip Planner

Search our weather history database for the weather conditions in past years. The results will help you decide how hot, cold, wet, or windy it might be!

Date:

Astronomy

Mar. 23, 2014 Rise Set
Actual Time 6:40 AM CDT 6:54 PM CDT
Civil Twilight 6:16 AM CDT 7:18 PM CDT
Nautical Twilight 5:48 AM CDT 7:46 PM CDT
Astronomical Twilight 5:20 AM CDT 8:14 PM CDT
Moon 12:51 AM CDT (3/23) 11:40 AM CDT (3/23)
Length of Visible Light 13h 01m
Length of Day
12h 13m
Waning Gibbous, 54% of the Moon is Illuminated
Mar 23
Waning Gibbous
Mar 23
Last Quarter
Mar 30
New
Apr 7
First Quarter
Apr 15
Full

Hourly Weather History & Observations

Time (CDT) Temp. Dew Point Humidity Pressure Visibility Wind Dir Wind Speed Gust Speed Precip Events Conditions
12:53 AM 60.1 °F 57.0 °F 90% 30.02 in 10.0 mi Calm Calm - N/A   Clear
1:53 AM 59.0 °F 57.0 °F 93% 30.02 in 9.0 mi Calm Calm - N/A   Clear
2:53 AM 54.0 °F 54.0 °F 100% 30.00 in 7.0 mi South 5.8 mph - N/A   Clear
3:53 AM 57.0 °F 57.0 °F 100% 29.98 in 6.0 mi SSW 4.6 mph - N/A   Clear
4:05 AM 57.0 °F 57.0 °F 100% 29.98 in 3.0 mi SSW 3.5 mph - N/A   Scattered Clouds
4:08 AM 55.9 °F 55.9 °F 100% 29.99 in 1.5 mi SSW 3.5 mph - N/A   Mostly Cloudy
4:17 AM 55.0 °F 55.0 °F 100% 29.99 in 0.8 mi SSW 4.6 mph - N/A   Mostly Cloudy
4:26 AM 55.9 °F 55.9 °F 100% 29.99 in 1.0 mi WSW 4.6 mph - N/A   Overcast
4:34 AM 57.0 °F 57.0 °F 100% 29.99 in 0.5 mi WSW 6.9 mph - N/A Fog Fog
4:53 AM 57.9 °F 57.9 °F 100% 29.99 in 0.2 mi WSW 3.5 mph - N/A Fog Fog
5:53 AM 60.1 °F 60.1 °F 100% 29.99 in 0.5 mi SSW 3.5 mph - N/A Fog Fog
6:09 AM 60.1 °F 60.1 °F 100% 30.00 in 1.2 mi SW 5.8 mph - N/A   Overcast
6:17 AM 60.1 °F 60.1 °F 100% 30.00 in 3.0 mi WSW 3.5 mph - N/A   Overcast
6:53 AM 60.1 °F 60.1 °F 100% 30.00 in 2.5 mi Calm Calm - N/A   Overcast
7:06 AM 60.1 °F 60.1 °F 100% 30.01 in 1.2 mi NW 3.5 mph - N/A   Overcast
7:22 AM 60.1 °F 60.1 °F 100% 30.01 in 0.5 mi West 3.5 mph - N/A Fog Fog
7:39 AM 60.1 °F 60.1 °F 100% 30.01 in 2.0 mi West 4.6 mph - N/A   Overcast
7:53 AM 61.0 °F 61.0 °F 100% 30.02 in 3.0 mi West 5.8 mph - N/A   Overcast
8:53 AM 62.1 °F 62.1 °F 100% 30.02 in 9.0 mi SSW 3.5 mph - N/A   Partly Cloudy
9:53 AM 66.0 °F 63.0 °F 90% 30.03 in 10.0 mi SW 4.6 mph - N/A   Partly Cloudy
10:35 AM 69.1 °F 64.0 °F 84% 30.06 in 10.0 mi WNW 11.5 mph - N/A   Mostly Cloudy
10:53 AM 70.0 °F 63.0 °F 78% 30.06 in 10.0 mi NW 11.5 mph - N/A   Mostly Cloudy
11:15 AM 68.0 °F 62.1 °F 81% 30.07 in 10.0 mi NW 12.7 mph - N/A   Overcast
11:53 AM 64.9 °F 62.1 °F 90% 30.08 in 2.0 mi NNW 9.2 mph 19.6 mph 0.06 in Rain Heavy Rain
12:01 PM 64.0 °F 63.0 °F 96% 30.07 in 4.0 mi NNW 6.9 mph - 0.00 in Rain Light Rain
12:53 PM 66.9 °F 63.0 °F 87% 30.03 in 10.0 mi North 5.8 mph - 0.01 in   Partly Cloudy
1:53 PM 70.0 °F 61.0 °F 73% 30.01 in 10.0 mi NNW 4.6 mph - N/A   Overcast
2:11 PM 71.1 °F 60.1 °F 68% 30.01 in 10.0 mi NNW 5.8 mph - N/A   Overcast
2:25 PM 69.1 °F 61.0 °F 75% 30.00 in 10.0 mi West 8.1 mph - N/A   Overcast
2:45 PM 71.1 °F 60.1 °F 68% 29.98 in 10.0 mi WNW 5.8 mph - N/A   Overcast
2:53 PM 72.0 °F 60.1 °F 66% 29.98 in 10.0 mi West 9.2 mph - N/A   Mostly Cloudy
3:53 PM 72.0 °F 59.0 °F 64% 29.97 in 10.0 mi NW 8.1 mph - N/A   Scattered Clouds
4:53 PM 73.9 °F 57.9 °F 57% 29.96 in 10.0 mi NNW 10.4 mph - N/A   Scattered Clouds
5:53 PM 72.0 °F 59.0 °F 64% 29.98 in 10.0 mi WNW 5.8 mph - N/A   Scattered Clouds
6:53 PM 69.1 °F 57.0 °F 65% 30.01 in 10.0 mi NNW 17.3 mph 24.2 mph N/A   Scattered Clouds
7:53 PM 64.0 °F 55.9 °F 75% 30.05 in 10.0 mi NNW 11.5 mph - N/A   Clear
8:53 PM 63.0 °F 55.0 °F 75% 30.09 in 10.0 mi NNW 9.2 mph - N/A   Partly Cloudy
9:53 PM 62.1 °F 53.1 °F 72% 30.11 in 10.0 mi NNW 10.4 mph - N/A   Clear
10:53 PM 59.0 °F 50.0 °F 72% 30.12 in 10.0 mi North 16.1 mph - N/A   Clear
11:53 PM 57.0 °F 46.9 °F 69% 30.11 in 10.0 mi North 10.4 mph - N/A   Clear